• In Uzbekistan
  • List of Countries
  • For 7 days
  • Water Temperature
  • Satellite Maps
  • Weather Map
  • Weather Widgets
  • user-avatar
    Login

    Hourly Weather Jewłach

    Today, 3 December, Saturday

    Time Temperature Precipitation Wind Pressure Humidity
    00:00 +7°C° 0.3 mm 1 mps 753 mmHg 91%
    01:00 +6°C° 0.1 mm 2 mps 754 mmHg 90%
    02:00 +6°C° 0.1 mm 2 mps 754 mmHg 90%
    03:00 +5°C° 0 mm 4 mps 755 mmHg 88%
    04:00 +4°C° 0 mm 3 mps 755 mmHg 87%
    05:00 +4°C° 0 mm 3 mps 756 mmHg 86%
    06:00 +5°C° 0 mm 2 mps 756 mmHg 85%
    07:00 +6°C° 0 mm 2 mps 757 mmHg 78%
    08:00 +7°C° 0 mm 2 mps 757 mmHg 70%
    09:00 +9°C° 0 mm 2 mps 757 mmHg 63%
    10:00 +10°C° 0 mm 3 mps 757 mmHg 55%
    11:00 +11°C° 0 mm 4 mps 758 mmHg 47%
    12:00 +12°C° 0 mm 4 mps 758 mmHg 39%
    13:00 +12°C° 0 mm 4 mps 758 mmHg 38%
    14:00 +12°C° 0 mm 4 mps 759 mmHg 37%
    15:00 +13°C° 0 mm 2 mps 759 mmHg 39%
    16:00 +10°C° 0 mm 2 mps 760 mmHg 42%
    17:00 +9°C° 0 mm 2 mps 761 mmHg 45%
    18:00 +7°C° 0 mm 2 mps 761 mmHg 48%
    19:00 +7°C° 0 mm 3 mps 762 mmHg 49%
    20:00 +7°C° 0 mm 3 mps 763 mmHg 50%
    21:00 +6°C° 0 mm 4 mps 764 mmHg 50%
    22:00 +6°C° 0 mm 4 mps 764 mmHg 50%
    23:00 +5°C° 0 mm 4 mps 765 mmHg 49%

    Tomorrow, 4 December, Sunday

    Time Temperature Precipitation Wind Pressure Humidity
    00:00 +5°C° 0 mm 5 mps 766 mmHg 49%
    01:00 +5°C° 0 mm 4 mps 766 mmHg 48%
    02:00 +5°C° 0 mm 4 mps 767 mmHg 48%
    03:00 +5°C° 0 mm 4 mps 767 mmHg 47%
    04:00 +5°C° 0 mm 4 mps 768 mmHg 47%
    05:00 +4°C° 0 mm 4 mps 768 mmHg 47%
    06:00 +4°C° 0 mm 4 mps 768 mmHg 47%
    07:00 +5°C° 0 mm 5 mps 768 mmHg 45%
    08:00 +6°C° 0 mm 5 mps 768 mmHg 42%
    09:00 +7°C° 0 mm 5 mps 768 mmHg 40%
    10:00 +8°C° 0 mm 5 mps 768 mmHg 37%
    11:00 +9°C° 0 mm 6 mps 768 mmHg 34%
    12:00 +10°C° 0 mm 6 mps 767 mmHg 31%
    13:00 +10°C° 0 mm 6 mps 767 mmHg 33%
    14:00 +10°C° 0 mm 6 mps 767 mmHg 34%
    15:00 +10°C° 0 mm 6 mps 767 mmHg 35%
    16:00 +9°C° 0 mm 6 mps 767 mmHg 39%
    17:00 +7°C° 0 mm 5 mps 767 mmHg 44%
    18:00 +6°C° 0 mm 5 mps 768 mmHg 48%
    19:00 +6°C° 0 mm 5 mps 768 mmHg 49%
    20:00 +5°C° 0 mm 6 mps 768 mmHg 50%
    21:00 +4°C° 0 mm 6 mps 768 mmHg 51%
    22:00 +4°C° 0 mm 6 mps 768 mmHg 52%
    23:00 +4°C° 0 mm 6 mps 768 mmHg 52%

    Day after tomorrow, 5 December, Monday

    Time Temperature Precipitation Wind Pressure Humidity
    00:00 +4°C° 0 mm 6 mps 768 mmHg 52%
    01:00 +4°C° 0 mm 6 mps 768 mmHg 52%
    02:00 +3°C° 0 mm 5 mps 768 mmHg 53%
    03:00 +3°C° 0 mm 5 mps 768 mmHg 53%
    04:00 +3°C° 0 mm 5 mps 768 mmHg 54%
    05:00 +3°C° 0 mm 5 mps 768 mmHg 55%
    06:00 +4°C° 0 mm 4 mps 768 mmHg 55%
    07:00 +5°C° 0 mm 4 mps 768 mmHg 53%
    08:00 +5°C° 0 mm 3 mps 768 mmHg 50%
    09:00 +7°C° 0 mm 3 mps 768 mmHg 48%
    10:00 +8°C° 0 mm 2 mps 768 mmHg 45%
    11:00 +9°C° 0 mm 2 mps 767 mmHg 42%
    12:00 +10°C° 0 mm 2 mps 767 mmHg 39%
    13:00 +10°C° 0 mm 2 mps 767 mmHg 39%
    14:00 +10°C° 0 mm 2 mps 766 mmHg 39%
    15:00 +10°C° 0 mm 2 mps 766 mmHg 40%
    16:00 +8°C° 0 mm 2 mps 767 mmHg 45%
    17:00 +7°C° 0 mm 2 mps 767 mmHg 51%
    18:00 +7°C° 0 mm 1 mps 767 mmHg 56%
    19:00 +6°C° 0.1 mm 2 mps 768 mmHg 58%
    20:00 +6°C° 0.1 mm 2 mps 768 mmHg 60%
    21:00 +5°C° 0.1 mm 2 mps 768 mmHg 62%
    22:00 +4°C° 0.4 mm 3 mps 768 mmHg 65%
    23:00 +4°C° 0.4 mm 4 mps 769 mmHg 68%

    6 December, Tuesday

    Time Temperature Precipitation Wind Pressure Humidity
    00:00 +3°C° 0.4 mm 5 mps 769 mmHg 71%
    01:00 +3°C° 0.3 mm 5 mps 770 mmHg 67%
    02:00 +3°C° 0.3 mm 6 mps 770 mmHg 64%
    03:00 +2°C° 0.3 mm 6 mps 770 mmHg 61%
    04:00 +2°C° 0.1 mm 6 mps 771 mmHg 59%
    05:00 +2°C° 0.1 mm 5 mps 771 mmHg 56%
    06:00 +2°C° 0.1 mm 5 mps 771 mmHg 54%
    07:00 +2°C° 0 mm 5 mps 772 mmHg 52%
    08:00 +2°C° 0 mm 5 mps 772 mmHg 51%
    09:00 +3°C° 0 mm 5 mps 772 mmHg 49%
    10:00 +4°C° 0 mm 4 mps 772 mmHg 46%
    11:00 +5°C° 0 mm 4 mps 772 mmHg 43%
    12:00 +5°C° 0 mm 4 mps 771 mmHg 40%
    13:00 +5°C° 0 mm 4 mps 771 mmHg 40%
    14:00 +5°C° 0 mm 3 mps 771 mmHg 40%
    15:00 +5°C° 0 mm 3 mps 771 mmHg 40%
    16:00 +5°C° 0 mm 2 mps 771 mmHg 45%
    17:00 +3°C° 0 mm 2 mps 771 mmHg 49%
    18:00 +3°C° 0 mm 1 mps 771 mmHg 53%
    19:00 +2°C° 0 mm 1 mps 771 mmHg 54%
    20:00 +2°C° 0 mm 1 mps 771 mmHg 55%
    21:00 +2°C° 0 mm 1 mps 771 mmHg 57%
    22:00 +2°C° 0 mm 1 mps 771 mmHg 56%
    23:00 +1°C° 0 mm 2 mps 771 mmHg 55%

    7 December, Wednesday

    Time Temperature Precipitation Wind Pressure Humidity
    00:00 +1°C° 0 mm 2 mps 770 mmHg 54%
    01:00 +1°C° 0 mm 2 mps 770 mmHg 53%
    02:00 -1°C° 0 mm 2 mps 769 mmHg 52%
    03:00 -1°C° 0 mm 2 mps 769 mmHg 51%
    04:00 -1°C° 0 mm 3 mps 769 mmHg 51%
    05:00 -1°C° 0 mm 3 mps 768 mmHg 50%
    06:00 -1°C° 0 mm 3 mps 768 mmHg 50%
    07:00 +1°C° 0 mm 3 mps 768 mmHg 47%
    08:00 +2°C° 0 mm 3 mps 767 mmHg 43%
    09:00 +3°C° 0 mm 4 mps 767 mmHg 40%
    10:00 +5°C° 0 mm 4 mps 766 mmHg 37%
    11:00 +6°C° 0 mm 4 mps 765 mmHg 34%
    12:00 +8°C° 0 mm 5 mps 764 mmHg 31%
    13:00 +8°C° 0 mm 5 mps 764 mmHg 32%
    14:00 +7°C° 0 mm 5 mps 764 mmHg 33%
    15:00 +7°C° 0 mm 5 mps 763 mmHg 34%
    16:00 +6°C° 0 mm 5 mps 764 mmHg 38%
    17:00 +5°C° 0 mm 5 mps 764 mmHg 41%
    18:00 +2°C° 0 mm 5 mps 765 mmHg 45%
    19:00 +2°C° 0 mm 5 mps 765 mmHg 44%
    20:00 +2°C° 0 mm 5 mps 766 mmHg 42%
    21:00 +2°C° 0 mm 5 mps 766 mmHg 41%
    22:00 +2°C° 0 mm 5 mps 766 mmHg 40%
    23:00 +2°C° 0 mm 5 mps 766 mmHg 40%

    8 December, Thursday

    Time Temperature Precipitation Wind Pressure Humidity
    00:00 +2°C° 0 mm 6 mps 766 mmHg 39%
    01:00 +2°C° 0 mm 5 mps 766 mmHg 40%
    02:00 +1°C° 0 mm 5 mps 767 mmHg 41%
    03:00 +1°C° 0 mm 5 mps 767 mmHg 42%
    04:00 +1°C° 0 mm 5 mps 768 mmHg 43%
    05:00 +1°C° 0 mm 5 mps 768 mmHg 44%
    06:00 +1°C° 0 mm 5 mps 769 mmHg 45%
    07:00 +2°C° 0 mm 5 mps 769 mmHg 43%
    08:00 +2°C° 0 mm 5 mps 770 mmHg 41%
    09:00 +3°C° 0 mm 5 mps 771 mmHg 39%
    10:00 +3°C° 0 mm 5 mps 771 mmHg 38%
    11:00 +4°C° 0 mm 6 mps 771 mmHg 38%
    12:00 +4°C° 0 mm 6 mps 771 mmHg 38%
    13:00 +4°C° 0 mm 6 mps 771 mmHg 38%
    14:00 +5°C° 0 mm 5 mps 771 mmHg 38%
    15:00 +5°C° 0 mm 5 mps 771 mmHg 38%
    16:00 +3°C° 0 mm 4 mps 771 mmHg 43%
    17:00 +2°C° 0 mm 3 mps 772 mmHg 47%
    18:00 +2°C° 0 mm 2 mps 773 mmHg 52%
    19:00 +1°C° 0 mm 2 mps 773 mmHg 56%
    20:00 +1°C° 0 mm 2 mps 773 mmHg 60%
    21:00 +1°C° 0 mm 1 mps 773 mmHg 64%
    22:00 +1°C° 0 mm 1 mps 773 mmHg 67%
    23:00 0°C° 0 mm 1 mps 773 mmHg 71%
    Show more